Skip Page Navigation
NASA JPL Caltech
NASA Logo - Jet Propulsion Laboratory + View the NASA Portal
+ Near-Earth Object (NEO) Program
Search JPL
JPL Home Earth Solar System Stars & Galaxies Technology
JPL Solar System Dynamics
BODIES ORBITS EPHEMERIDES TOOLS PHYSICAL DATA DISCOVERY FAQ SITE MAP
JPL Small-Body Database Browser
Search: [ help ]  
29P/Schwassmann-Wachmann 1
Classification: Jupiter-family Comet          SPK-ID: 1000079
Ephemeris | Orbit Diagram | Orbital Elements | Physical Parameters | Discovery Circumstances | Close-Approach Data ]

[ hide orbit diagram ]
Orbit Diagram
Note: Make sure you have Java enabled on your browser to see the applet. This applet is provided as a 3D orbit visualization tool. The applet was implemented using 2-body methods, and hence should not be used for determining accurate long-term trajectories (over several years or decades) or planetary encounter circumstances. For accurate long-term ephemerides, please instead use our Horizons system.
Orbit Viewer

Additional Notes: the orbits shown in the applet are color coded. The planets are white lines, and the asteroid/comet is a blue line. The bright white line indicates the portion of the orbit that is above the ecliptic plane, and the darker portion is below the ecliptic plane. Likewise for the asteroid/comet orbit, the light blue indicates the portion above the ecliptic plane, and the dark blue the portion below the ecliptic plane.

Orbit Viewer applet originally written and kindly provided by Osamu Ajiki (AstroArts), and further modified by Ron Baalke (JPL).


:
Orbital Elements at Epoch 2456364.5 (2013-Mar-13.0) TDB
Reference: JPL K043/61 (heliocentric ecliptic J2000)
 Element Value Uncertainty (1-sigma)   Units 
e .04302136070568838 1.8486e-08  
a 6.003019437123172 5.7225e-08 AU
q 5.744761372595437 9.1074e-08 AU
i 9.374702111472381 2.2305e-06 deg
node 312.5049095965991 1.2519e-05 deg
peri 50.7293476300862 3.2979e-05 deg
M 210.9713409712125 3.1683e-05 deg
tp 2458588.426060777737
(2019-Apr-14.92606078)
0.00048914 JED
period 5372.210869355891
14.71
7.6817e-05
2.103e-07
d
yr
n .06701151700010664 9.582e-10 deg/d
Q 6.261277501650906 5.9687e-08 AU
  Orbit Determination Parameters
   # obs. used (total)      18552  
   data-arc span      40534 days (110.98 yr)  
   first obs. used      1902-03-04  
   last obs. used      2013-02-23  
   planetary ephem.      DE405  
   SB-pert. ephem.      SB405-CPV-2  
   condition code      0  
   fit RMS      .79428  
   data source      ORB  
   producer      Ryan S. Park  
   solution date      2013-Mar-03 19:22:59  

Additional Information
 Earth MOID = 4.74782 AU 
 T_jup = 2.984 
[ show covariance matrix ]

Ephemeris | Orbit Diagram | Orbital Elements | Physical Parameters | Discovery Circumstances | Close-Approach Data ]

Physical Parameter Table
Parameter Symbol Value Units Sigma Reference Notes
comet total magnitude M1 5.5 mag 1. K043/61 from 2454 observations, assumed slope, autocmod 2.5b
comet total magnitude slope K1 7.   n/a K043/61 autocmod 2.5b
diameter diameter 30.8 km n/a Lamy,P.L.,Toth,I.,Fernandez,Y.R.,Weaver,H.A. (2004) Comets II, pp. 223-264  

29P/Schwassmann-Wachmann 1          Discovered 1927-Nov-15 by Schwassmann, A. and Wachmann, A. A. at Hamburg Observatory, Germany
discovered on plate/photo taken on discovery date
Reference: comet.disLast Updated: 2003-08-29

[ show close-approach data ]
Alternate Designations
 Perihelion 
Year
(est.)
 New-Style 
Desig
Roman
 Numeral 
Year/
 Letter 
 1989.9       1989 XV   
 1975.2       1974 II   
 1960.5       1957 IV   
 1945.7       1941 VI   
 1931.0   29P/1927 V1   1925 II   1927i 
 1901.6   29P/1902 E1   1908 IV   
Ephemeris | Orbit Diagram | Orbital Elements | Physical Parameters | Discovery Circumstances | Close-Approach Data ]
ABOUT SSD CREDITS/AWARDS PRIVACY/COPYRIGHT GLOSSARY LINKS
FirstGov 2013-May-25 13:23 UT
(server date/time)  
NASA Home Page
Site Manager:   Donald K. Yeomans
Webmaster  Alan B. Chamberlin